Terminal Aerodrome Forecast
Issued by NWS

Home | Current Version | Previous Version | Text Only | Print | Product List | Glossary On
Versions: 1 2 3 4 5 6 7 8 9 10 11 12 13 14 15 16 17 18 19 20 21 22 23 24 25 26 27
000
FTUS43 KDLH 041100
TAFHYR
TAF
KHYR 041136Z 0412/0512 27008KT P6SM SCT015
     FM041800 29008G15KT P6SM BKN030
     FM050000 30003KT P6SM SCT035=

USA.gov is the U.S. government's official web portal to all federal, state and local government web resources and services.